"Pseudo-MPEC" for ZTB6D2C

Created 2018 Oct 17 11:18:24 UT using Find_Orb

Click here for an explanation of pseudo-MPECs

 
 Astrometry: 
     ZTB6D2C  C2018 10 10.31501 02 57 24.01 +23 55 40.9          21.2 GVNEOCPG96
     ZTB6D2C  C2018 10 10.32020 02 57 23.65 +23 55 40.4          21.4 GVNEOCPG96
     ZTB6D2C  C2018 10 10.32537 02 57 23.30 +23 55 39.8          22.4 GVNEOCPG96
     ZTB6D2C  C2018 10 10.33054 02 57 22.98 +23 55 39.9          21.6 GVNEOCPG96
     ZTB6D2C  C2018 10 10(_Astrometry/+DhwndmK*_EFr+I!Zr%d\MJ?U7[q@tZ%?gAI8%/V06
     ZTB6D2C  C2018 10 107K'wt\1Gau)5D78oW2*\+,^rM.eR=VXx-,Z-u:kd:m.Q+XcrbE#HV06
     ZTB6D2C  C2018 10 10^PPF;(=K:oY!Owb$kSi_!Qk`/TXKS\tk2J7',T,!IeVR=W.LnMQ_V06
     ZTB6D2C  C2018 10 10g;mFfF\:8H))K85aU\nr%ZL%(SVAAKhA85W,'YKdbvQ`82287G?OV06
     ZTB6D2C KC2018 10 11LLKmx9hj(yvcXGNtwPLSnfkZy^qF#gO):Ql:?\B?X,wZZLWdR13VL01
     ZTB6D2C KC2018 10 11mq:?=q,m!GRlaKN^jajBA$nRBF=UdtI\4BS`NaOHmuc$G/ek+`IyL01
     ZTB6D2C KC2018 10 118lyVG=*JSrl-Xua?$redacted;c2yM+#N:B@E(ixu5wQ]n5aH-./L01
     ZTB6D2C  C2018 10 11f)p_-ZL`aWd5K`UJiyHd4yoKG*3o7u$W$Oqe/CKJTi_%Po)sn+]\H01
     ZTB6D2C  C2018 10 11*,b+6u!'JY9N.0mq-uab[@lPIexTZ8.BCxqx%AXrI@(li5gPwJiRH01
     ZTB6D2C  C2018 10 11s.PM0e?-cYausn$nP@:t/'J,*OO6H]gPmRoe92'rNWM!%+o/K/)[H01
     ZTB6D2C  C2018 10 11kTAO)K?+.,[V8+A,qIXE+G_6pnZxQ%,L.iwMt,40Lo]2f,kffPgKH01
     ZTB6D2C KC2018 10 12A]@7qrhv$n^ml2gRFQnLFQ_g8PSX@^!W$8)PYTOGAPhsvtAH@raaH21
     ZTB6D2C KC2018 10 12d7:Cr4'sF_2O5l.CAjV2i,,0/']ph!b)seeDZq%-=dsFSfUva5@XH21
     ZTB6D2C KC2018 10 12lSGR_2afoXUpt8oT/t;M95MlU(CpcNdvV.XvWjQ'dCPrSK3ZH-dWH21
     ZTB6D2C KC2018 10 16j-NbqgRvC`TtqDKS.I)ZV.njLpQ7NADV]oXc7e`4Kn.w94P!]Y\9H21
     ZTB6D2C KC2018 10 16h*)nZ+(V*^9SqWj\q%aeg8X!hZ^pQjZ^oD]%(ur[lOL(+D@r\xN%H21
     ZTB6D2C HC2018 10 1722'(dK(xc]G-tL5oEKNQDO6Bo.%G\*ZIebg6E?y(gamPKlUgA,fJ291
     ZTB6D2C HC2018 10 17B.s+g@Aqj6c1L.QjrAF?KK2'9S3%#0gv;Up\qM=48iBiIf;Df[p7291
     ZTB6D2C HC2018 10 17mw*d/Wtw-5R#LXtSO.k?*5BJPg6e7(X42XRv5'MBYFh7tuANEOCP291

Station data:
(291) LPL/Spacewatch II  (N31.961669 W111.599905)  US/Arizona.  Observers J.
   V. Scotti, R. S. McMillan. 1.8-m f/2.7 reflector + CCD.
(G96) Mt. Lemmon Survey  (N32.442754 W110.788720)  US/Arizona.  Observers B.
   M. Africano, E. J. Christensen, D. C. Fuls, A. R. Gibbs, A. D. Grauer, J.
   A. Johnson, R. A. Kowalski, S. M. Larson, G. J. Leonard, R. L. Seaman, F.
   C. Shelly. 1.5-m reflector + 10K CCD.
(H01) Magdalena Ridge Observatory, Socorro  (N33.984833 W107.189333)  US/New
   Mexico.  Observers W. H. Ryan, E. V. Ryan. Measurer W. H. Ryan. 2.4-m
   f/8.9 reflector + CCD.
(H21) Astronomical Research Observatory, Westfield  (N39.483057 W87.968270)
   US/Illinois. 0.76-m f/3.0 astrograph + CCD.
(L01) Višnjan Observatory, Tičan  (N45.290900 E13.749300)  Croatia.  Observer
   K. Korlević. 1.0-m f/2.9 reflector + CCD.
(V06) Catalina Sky Survey-Kuiper  (N32.416847 W110.732550)  US/Arizona.
   Observers B. M. Africano, E. J. Christensen, D. C. Fuls, A. R. Gibbs, A.
   D. Grauer, J. A. Johnson, R. A. Kowalski, S. M. Larson, G. J. Leonard, R.
   L. Seaman, F. C. Shelly. 1.55-m reflector + CCD.

Orbital elements:  ZTB6D2C
   Perihelion 2018 Jun 16.503775 +/- 1.08 TT = 12:05:26 (JD 2458286.003775)
Epoch 2018 Oct 17.0 TT = JDT 2458408.5   Earth MOID: 0.2772   Ma: 0.0559
M  33.44379 +/- 0.48                (J2000 ecliptic)          AutoNEOCP
n   0.27301902 +/- 0.00171          Peri.  345.20531 +/- 0.22
a   2.35328273 +/- 0.00981          Node   328.57216 +/- 0.11
e   0.4514435 +/- 0.00318           Incl.    3.47398 +/- 0.009
P   3.61                   H 19.9   G  0.15   U  8.5  
q 1.29090844 +/- 0.00232    Q 3.41565703 +/- 0.0218
From 23 observations 2018 Oct. 10-17; mean residual 0".19
Residuals in arcseconds: 
181010 G96  .14-  .24-    181011 L01  .22+  .25-    181012 H21  .16-  .14-    
181010 G96  .14-  .29-    181011 L01  .06+  .02+    181012 H21  .07+  .11+    
181010 G96  .02-  .43-    181011 L01  .07+  .11+    181016 H21  .04-  .11+    
181010 G96  .52+  .14+    181011 H01  .29-  .16+    181016 H21  .36+  .00     
181010 V06  .03-  .13+    181011 H01  .03+  .10-    181017 291  .15+  .10+    
181010 V06  .10-  .35+    181011 H01  .06-  .16+    181017 291  .01+  .26-    
181010 V06  .03-  .17+    181011 H01  .02-  .15+    181017 291  .40-  .05+    
181010 V06  .03+  .10+    181012 H21  .17-  .14-    

Ephemerides (geocentric):
Date (UTC) HH   RA              Dec         delta   r     elong  mag " sig PA
---- -- -- --  -------------   -----------  ------ ------ -----  --- ---- ---
2018 10 17 11  02 48 52.689   +23 36 58.37  .78088 1.7389 155.9 21.4  .10 172
2018 10 17 12  02 48 49.494   +23 36 49.38  .78096 1.7392 156.0 21.4  .11 171
2018 10 17 13  02 48 46.297   +23 36 40.36  .78105 1.7394 156.0 21.4  .12 169
2018 10 17 14  02 48 43.098   +23 36 31.31  .78113 1.7396 156.1 21.4  .13 168
2018 10 17 15  02 48 39.897   +23 36 22.24  .78122 1.7399 156.1 21.4  .13 166
2018 10 17 16  02 48 36.695   +23 36 13.14  .78131 1.7401 156.2 21.4  .14 165
2018 10 17 17  02 48 33.491   +23 36 04.01  .78139 1.7403 156.2 21.4  .15 164
2018 10 17 18  02 48 30.285   +23 35 54.86  .78148 1.7406 156.3 21.4  .16 163
2018 10 17 19  02 48 27.077   +23 35 45.68  .78157 1.7408 156.3 21.4  .16 162
2018 10 17 20  02 48 23.867   +23 35 36.47  .78165 1.7410 156.4 21.4  .17 162
2018 10 17 21  02 48 20.655   +23 35 27.24  .78174 1.7413 156.4 21.4  .18 161
2018 10 17 22  02 48 17.442   +23 35 17.98  .78183 1.7415 156.5 21.4  .19 160
2018 10 17 23  02 48 14.227   +23 35 08.69  .78192 1.7417 156.5 21.4  .20 159
2018 10 18 00  02 48 11.010   +23 34 59.38  .78201 1.7420 156.6 21.4  .21 159
2018 10 18 01  02 48 07.791   +23 34 50.04  .78210 1.7422 156.6 21.4  .21 158
2018 10 18 02  02 48 04.571   +23 34 40.67  .78219 1.7424 156.7 21.4  .22 157
2018 10 18 03  02 48 01.349   +23 34 31.28  .78228 1.7427 156.7 21.4  .23 157
2018 10 18 04  02 47 58.125   +23 34 21.86  .78237 1.7429 156.8 21.4  .24 156
2018 10 18 05  02 47 54.900   +23 34 12.42  .78246 1.7431 156.8 21.4  .25 156
2018 10 18 06  02 47 51.672   +23 34 02.95  .78255 1.7434 156.9 21.4  .26 155
2018 10 18 07  02 47 48.443   +23 33 53.45  .78264 1.7436 156.9 21.4  .27 155
2018 10 18 08  02 47 45.213   +23 33 43.92  .78273 1.7438 157.0 21.4  .28 154
2018 10 18 09  02 47 41.980   +23 33 34.37  .78282 1.7441 157.0 21.4  .29 154
2018 10 18 10  02 47 38.746   +23 33 24.80  .78291 1.7443 157.1 21.4  .30 154
2018 10 18 11  02 47 35.511   +23 33 15.20  .78301 1.7445 157.1 21.4  .31 153
2018 10 18 12  02 47 32.274   +23 33 05.57  .78310 1.7448 157.2 21.4  .32 153
2018 10 18 13  02 47 29.035   +23 32 55.91  .78319 1.7450 157.2 21.4  .33 152
2018 10 18 14  02 47 25.794   +23 32 46.23  .78329 1.7452 157.3 21.3  .34 152
2018 10 18 15  02 47 22.552   +23 32 36.53  .78338 1.7455 157.3 21.3  .35 152
2018 10 18 16  02 47 19.308   +23 32 26.80  .78348 1.7457 157.4 21.3  .36 151
2018 10 18 17  02 47 16.063   +23 32 17.04  .78357 1.7459 157.4 21.3  .37 151
2018 10 18 18  02 47 12.816   +23 32 07.25  .78367 1.7462 157.5 21.3  .38 151
2018 10 18 19  02 47 09.568   +23 31 57.44  .78376 1.7464 157.5 21.3  .39 150
2018 10 18 20  02 47 06.318   +23 31 47.61  .78386 1.7466 157.6 21.3  .40 150
2018 10 18 21  02 47 03.066   +23 31 37.75  .78395 1.7469 157.6 21.3  .41 150
2018 10 18 22  02 46 59.813   +23 31 27.86  .78405 1.7471 157.7 21.3  .42 149
2018 10 18 23  02 46 56.559   +23 31 17.95  .78415 1.7473 157.7 21.3  .43 149
2018 10 19 00  02 46 53.303   +23 31 08.01  .78424 1.7476 157.8 21.3  .44 149
2018 10 19 01  02 46 50.045   +23 30 58.04  .78434 1.7478 157.8 21.3  .46 148
2018 10 19 02  02 46 46.786   +23 30 48.05  .78444 1.7480 157.9 21.3  .47 148
2018 10 19 03  02 46 43.526   +23 30 38.04  .78454 1.7483 157.9 21.3  .48 148
2018 10 19 04  02 46 40.264   +23 30 28.00  .78464 1.7485 158.0 21.3  .49 148
2018 10 19 05  02 46 37.000   +23 30 17.93  .78473 1.7487 158.0 21.3  .50 147
2018 10 19 06  02 46 33.735   +23 30 07.84  .78483 1.7490 158.1 21.3  .51 147
2018 10 19 07  02 46 30.469   +23 29 57.72  .78493 1.7492 158.2 21.3  .53 147
2018 10 19 08  02 46 27.201   +23 29 47.58  .78503 1.7494 158.2 21.3  .54 146
2018 10 19 09  02 46 23.932   +23 29 37.41  .78513 1.7497 158.3 21.3  .55 146
2018 10 19 10  02 46 20.661   +23 29 27.21  .78524 1.7499 158.3 21.3  .56 146